Location: Burleson Fire Department Station 2
(32.5391°N, 97.3075°W)
Time: 16:20:11
(UTC+00:00)

ACS3 Solar Sail - Visible Passes

Search period start: 06 October 2024 00:00
Search period end: 16 October 2024 00:00
Orbit: 962 x 1036 km, 97.4° (Epoch: 06 October)

Date Brightness Start Highest point End Pass type
(mag) Time Alt. Az. Time Alt. Az. Time Alt. Az.
06 Oct 3.2 01:17:38 19° ENE 01:17:51 19° ENE 01:22:03 10° NNE visible
06 Oct 2.7 03:02:48 47° NW 03:02:48 47° NW 03:07:30 10° NNW visible
07 Oct 2.5 01:49:59 34° ENE 01:49:59 34° ENE 01:55:02 10° N visible
07 Oct 3.7 03:35:09 26° WNW 03:35:09 26° WNW 03:38:44 10° NW visible
08 Oct 2.2 02:22:20 53° NNE 02:22:20 53° NNE 02:27:20 10° N visible
08 Oct 4.4 04:07:30 13° WNW 04:07:30 13° WNW 04:08:57 10° NW visible
09 Oct 3.3 01:09:29 17° ENE 01:09:33 17° ENE 01:13:19 10° NNE visible
09 Oct 2.7 02:54:39 47° NW 02:54:39 47° NW 02:59:09 10° NNW visible
10 Oct 2.7 01:41:48 30° ENE 01:41:48 30° ENE 01:46:26 10° N visible
10 Oct 3.6 03:26:58 27° WNW 03:26:58 27° WNW 03:30:27 10° NNW visible
11 Oct 2.3 02:14:06 47° NNE 02:14:06 47° NNE 02:18:46 10° N visible
11 Oct 4.4 03:59:15 14° WNW 03:59:15 14° WNW 04:00:53 10° NW visible
12 Oct 3.4 01:01:12 15° ENE 01:01:12 15° ENE 01:04:20 10° NNE visible
12 Oct 2.7 02:46:22 45° NNW 02:46:22 45° NNW 02:50:38 10° NNW visible
13 Oct 2.9 01:33:28 27° NE 01:33:28 27° NE 01:37:40 10° NNE visible
13 Oct 3.5 03:18:38 28° NW 03:18:38 28° NW 03:21:59 10° NNW visible
14 Oct 2.5 02:05:43 41° NNE 02:05:43 41° NNE 02:10:04 10° N visible
14 Oct 4.3 03:50:52 15° WNW 03:50:52 15° WNW 03:52:36 10° NW visible
15 Oct 3.5 00:52:47 13° ENE 00:52:47 13° ENE 00:55:03 10° NE visible
15 Oct 2.7 02:37:57 42° NNW 02:37:57 42° NNW 02:41:57 10° NNW visible
